STARLINK-35402, 66079

Orbit data source: Space-Track

STARLINK-35402, 66079 is a payload satellite owned by SpaceX/Seattle (US) in LEO that was launched on Sun, 19 Oct 2025 UTC via an FALCON 9 launch vehicle from the Air Force Eastern Test Range (AFETR). Payload-class satellites include a variety of spacecraft equipped with specific instruments for various scientific and technological missions. These include communications satellites like Starlink; space stations such as the ISS; scientific satellites like the Hubble; Earth observation satellites from companies like Planet Labs, Umbra, and HawkEye 360; GPS; miniature CubeSats for education and research; and military/defense satellites.

Loading next visibility...
Identifier
66079, 2025-235X
Orbit
LEO
Country
Flag of USUS
Related business
Manufacturer
SpaceX/Seattle
Mission
Operational Commercial Communications
Bus & Motor
STARLINK V2MO, Unknown motor
Mass
575 kg wet, ~530 kg dry
Launch date (UTC)
2025-10-19 (8 months ago)
Launch vehicle
FALCON 9
Launch site
Air Force Eastern Test Range (AFETR)
Object type
Payload
Rocket body
Debris
Shape & HBR
Box + 2 Pan, 17.7 m
Radar Cross Section
36.964 m², Large (>1 m²)

Expand to show TLE details & history
Last TLE update: 13 hours ago

TLE from 13 hours ago
0 STARLINK-35402
1 66079U 25235X   26171.29758573  .00030912  00000-0  10505-2 0  9996
2 66079  53.1582 128.4883 0001301  85.7892 274.3257 15.30231357 38632
Epoch: 2026-06-20T07:08Z
TLE epoch observation values (Epoch: 2026-06-20T07:08:31.407Z)
Latitude
-0.00003°
Longitude
112.84319°
Altitude
475.954 km
Speed
7.629 km/s
True Right ascension
08h 33m 57s
True Declination
0° 00' 00"
Sunlit
Object was in daylight at epoch
Visualization orbit readout
Latitude
Unknown
Longitude
Unknown
Altitude
Unknown
Speed
Unknown
Apparent Right ascension
Unknown
Apparent Declination
Unknown
Sunlit
N/A
Visualization observer readout
Local Sidereal Time
07:18:54
Azimuth
Unknown
Elevation
Unknown
Doppler factor
Unknown
Orbital elements
Apogee altitude
476.27 km
Perigee altitude
474.487 km
Semi-major axis
6,853.515 km
Eccentricity
0.00013
Inclination
53.1582°
RAAN
128.4883°
Arg. of periapsis
85.7892°
True anomaly
274.31083°
Mean anomaly
274.3257°
Eccentric anomaly
274.31827°
Mean motion
3.82537 °/min
Orbital period
94.11 mins
BSTAR
0.0010505
Loading maneuver chart data...
Computing Atmospheric mass density...
Loading historical data...
Loading historical data...
Loading historical data...
Loading historical data...
Loading historical data...
Loading historical data...
Loading historical data...

Documentation

Showing up to 5 results
|